User: anonymous   Login
Location: PACMO
(41.3967°N, 90.3760°W)
Time: 15:44:22
(UTC-05:00)
Language:

BREEZE-M DEB (TANK) - Orbit

View from above orbital plane
View from above orbital plane
View from above satellite
View from above satellite

Ground track
Ground track

The orbit data is extracted from the following two-line orbital elements,

1 31863U 07032B   15116.63784149  .00001083  00000-0  65088-3 0  9991
2 31863 045.9488 303.9767 4996715 028.4442 351.5845 05.51503932156322
Epoch (UTC): 26 April 2015 15:18:29
Eccentricity: 0.4996715
inclination: 45.9488°
perigee height: 392 km
apogee height: 13915 km
right ascension of ascending node: 303.9767°
argument of perigee: 28.4442°
revolutions per day: 5.51503932
mean anomaly at epoch: 351.5845°
orbit number at epoch: 15632

The dashed part of the orbit path shows where the satellite is in the earth's shadow,  

DLR